Time,TemperatureF,DewpointF,PressureIn,WindDirection,WindDirectionDegrees,WindSpeedMPH,WindSpeedGustMPH,Humidity,HourlyPrecipIn,Conditions,Clouds,dailyrainin,SoftwareType,DateUTC
2013-08-25 00:00:00,53.8,48.4,30.33,WSW,239,0.0,4.0,82,0.00,,,0.00,Wunderground v.1.15,2013-08-25 04:00:00,
2013-08-25 00:10:00,53.6,47.9,30.33,WSW,239,0.0,0.0,81,0.00,,,0.00,Wunderground v.1.15,2013-08-25 04:10:00,
2013-08-25 00:20:00,53.2,48.2,30.33,WSW,239,0.0,0.0,83,0.00,,,0.00,Wunderground v.1.15,2013-08-25 04:20:00,
2013-08-25 00:30:00,52.6,48.2,30.33,WSW,239,0.0,0.0,85,0.00,,,0.00,Wunderground v.1.15,2013-08-25 04:30:00,
2013-08-25 00:40:00,52.2,48.1,30.33,WSW,239,0.0,0.0,86,0.00,,,0.00,Wunderground v.1.15,2013-08-25 04:40:00,
2013-08-25 00:50:00,52.0,48.6,30.33,WSW,239,0.0,0.0,88,0.00,,,0.00,Wunderground v.1.15,2013-08-25 04:50:00,
2013-08-25 01:00:00,52.2,48.8,30.33,WSW,239,0.0,0.0,88,0.00,,,0.00,Wunderground v.1.15,2013-08-25 05:00:00,
2013-08-25 01:10:00,52.2,48.4,30.33,WSW,239,0.0,0.0,87,0.00,,,0.00,Wunderground v.1.15,2013-08-25 05:10:00,
2013-08-25 01:20:00,52.2,48.4,30.33,WSW,239,0.0,0.0,87,0.00,,,0.00,Wunderground v.1.15,2013-08-25 05:20:00,
2013-08-25 01:30:00,51.6,48.2,30.33,WSW,239,0.0,0.0,88,0.00,,,0.00,Wunderground v.1.15,2013-08-25 05:30:00,
2013-08-25 01:40:00,51.1,48.0,30.33,WSW,239,0.0,0.0,89,0.00,,,0.00,Wunderground v.1.15,2013-08-25 05:40:00,
2013-08-25 01:50:00,51.1,48.3,30.32,WSW,239,0.0,0.0,90,0.00,,,0.00,Wunderground v.1.15,2013-08-25 05:50:00,
2013-08-25 02:00:00,51.6,48.5,30.32,WSW,239,0.0,0.0,89,0.00,,,0.00,Wunderground v.1.15,2013-08-25 06:00:00,
2013-08-25 02:10:00,51.3,48.2,30.32,WSW,239,0.0,0.0,89,0.00,,,0.00,Wunderground v.1.15,2013-08-25 06:10:00,
2013-08-25 02:20:00,51.0,47.9,30.33,WSW,239,0.0,0.0,89,0.00,,,0.00,Wunderground v.1.15,2013-08-25 06:20:00,
2013-08-25 02:30:00,51.0,48.5,30.32,WSW,239,0.0,0.0,91,0.00,,,0.00,Wunderground v.1.15,2013-08-25 06:30:00,
2013-08-25 02:40:00,50.5,48.0,30.32,WSW,239,0.0,0.0,91,0.00,,,0.00,Wunderground v.1.15,2013-08-25 06:40:00,
2013-08-25 02:50:00,50.4,48.5,30.32,WSW,239,0.0,0.0,93,0.00,,,0.00,Wunderground v.1.15,2013-08-25 06:50:00,
2013-08-25 03:00:00,50.1,48.2,30.33,WSW,239,0.0,0.0,93,0.00,,,0.00,Wunderground v.1.15,2013-08-25 07:00:00,
2013-08-25 03:10:00,50.1,48.4,30.33,WSW,239,0.0,0.0,94,0.00,,,0.00,Wunderground v.1.15,2013-08-25 07:10:00,
2013-08-25 03:20:00,50.5,49.1,30.33,WSW,239,0.0,0.0,95,0.00,,,0.00,Wunderground v.1.15,2013-08-25 07:20:00,
2013-08-25 03:30:00,50.7,49.3,30.33,WSW,239,0.0,0.0,95,0.00,,,0.00,Wunderground v.1.15,2013-08-25 07:30:00,
2013-08-25 03:40:00,50.4,48.7,30.33,WSW,239,0.0,0.0,94,0.00,,,0.00,Wunderground v.1.15,2013-08-25 07:40:00,
2013-08-25 03:50:00,50.1,48.7,30.35,WSW,239,0.0,0.0,95,0.00,,,0.00,Wunderground v.1.15,2013-08-25 07:50:00,
2013-08-25 04:00:00,50.2,48.8,30.34,WSW,239,0.0,0.0,95,0.00,,,0.00,Wunderground v.1.15,2013-08-25 08:00:00,
2013-08-25 04:10:00,49.8,48.4,30.34,WSW,239,0.0,0.0,95,0.00,,,0.00,Wunderground v.1.15,2013-08-25 08:10:00,
2013-08-25 04:20:00,49.4,48.0,30.35,WSW,239,0.0,0.0,95,0.00,,,0.00,Wunderground v.1.15,2013-08-25 08:20:00,
2013-08-25 04:30:00,49.6,48.8,30.35,WSW,239,0.0,0.0,97,0.00,,,0.00,Wunderground v.1.15,2013-08-25 08:30:00,
2013-08-25 04:40:00,49.8,49.0,30.35,WSW,239,0.0,0.0,97,0.00,,,0.00,Wunderground v.1.15,2013-08-25 08:40:00,
2013-08-25 04:50:00,49.6,48.8,30.35,WSW,239,0.0,0.0,97,0.00,,,0.00,Wunderground v.1.15,2013-08-25 08:50:00,
2013-08-25 05:00:00,49.5,48.7,30.35,WSW,239,0.0,0.0,97,0.00,,,0.00,Wunderground v.1.15,2013-08-25 09:00:00,
2013-08-25 05:10:00,49.2,48.4,30.35,WSW,239,0.0,0.0,97,0.00,,,0.00,Wunderground v.1.15,2013-08-25 09:10:00,
2013-08-25 05:20:00,49.2,48.4,30.35,WSW,239,0.0,0.0,97,0.00,,,0.00,Wunderground v.1.15,2013-08-25 09:20:00,
2013-08-25 05:30:00,49.1,48.6,30.35,WSW,239,0.0,0.0,98,0.00,,,0.00,Wunderground v.1.15,2013-08-25 09:30:00,
2013-08-25 05:40:00,48.8,48.3,30.35,WSW,239,0.0,0.0,98,0.00,,,0.00,Wunderground v.1.15,2013-08-25 09:40:00,
2013-08-25 05:50:00,48.9,48.6,30.36,WSW,239,0.0,0.0,99,0.00,,,0.00,Wunderground v.1.15,2013-08-25 09:50:00,
2013-08-25 06:00:00,48.9,48.4,30.36,WSW,239,0.0,0.0,98,0.00,,,0.00,Wunderground v.1.15,2013-08-25 10:00:00,
2013-08-25 06:10:00,48.5,48.0,30.36,WSW,239,0.0,0.0,98,0.00,,,0.00,Wunderground v.1.15,2013-08-25 10:10:00,
2013-08-25 06:20:00,48.3,48.0,30.36,WSW,239,0.0,0.0,99,0.00,,,0.00,Wunderground v.1.15,2013-08-25 10:20:00,
2013-08-25 06:30:00,48.8,48.5,30.38,WSW,239,0.0,0.0,99,0.00,,,0.00,Wunderground v.1.15,2013-08-25 10:30:00,
2013-08-25 06:40:00,49.2,48.9,30.38,WSW,239,0.0,0.0,99,0.00,,,0.00,Wunderground v.1.15,2013-08-25 10:40:00,
2013-08-25 06:50:00,49.4,49.1,30.37,SW,217,0.0,0.0,99,0.00,,,0.00,Wunderground v.1.15,2013-08-25 10:50:00,
2013-08-25 07:00:00,48.9,48.6,30.37,SW,217,0.0,0.0,99,0.00,,,0.00,Wunderground v.1.15,2013-08-25 11:00:00,
2013-08-25 07:10:00,48.9,48.9,30.37,SW,217,0.0,0.0,100,0.00,,,0.00,Wunderground v.1.15,2013-08-25 11:10:00,
2013-08-25 07:20:00,49.4,49.4,30.37,SW,217,0.0,0.0,100,0.00,,,0.00,Wunderground v.1.15,2013-08-25 11:20:00,
2013-08-25 07:30:00,49.5,49.5,30.37,SW,217,0.0,0.0,100,0.00,,,0.00,Wunderground v.1.15,2013-08-25 11:30:00,
2013-08-25 07:40:00,49.8,49.8,30.37,SW,217,0.0,0.0,100,0.00,,,0.00,Wunderground v.1.15,2013-08-25 11:40:00,
2013-08-25 07:50:00,50.4,50.4,30.37,SW,217,0.0,0.0,100,0.00,,,0.00,Wunderground v.1.15,2013-08-25 11:50:00,
2013-08-25 08:00:00,51.0,51.0,30.37,SW,217,0.0,0.0,100,0.00,,,0.00,Wunderground v.1.15,2013-08-25 12:00:00,
2013-08-25 08:10:00,51.7,51.7,30.37,SW,217,0.0,0.0,100,0.00,,,0.00,Wunderground v.1.15,2013-08-25 12:10:00,
2013-08-25 08:20:00,52.3,52.3,30.38,SW,217,0.0,0.0,100,0.00,,,0.00,Wunderground v.1.15,2013-08-25 12:20:00,
2013-08-25 08:30:00,53.3,53.3,30.38,SW,217,0.0,0.0,100,0.00,,,0.00,Wunderground v.1.15,2013-08-25 12:30:00,
2013-08-25 08:40:00,56.2,56.2,30.38,SW,217,0.0,0.0,100,0.00,,,0.00,Wunderground v.1.15,2013-08-25 12:40:00,
2013-08-25 08:50:00,57.6,55.6,30.38,SW,217,0.0,0.0,93,0.00,,,0.00,Wunderground v.1.15,2013-08-25 12:50:00,
2013-08-25 09:00:00,59.3,56.1,30.38,SW,217,0.0,0.0,89,0.00,,,0.00,Wunderground v.1.15,2013-08-25 13:00:00,
2013-08-25 09:10:00,61.2,57.3,30.38,SW,217,0.0,0.0,87,0.00,,,0.00,Wunderground v.1.15,2013-08-25 13:10:00,
2013-08-25 09:20:00,62.9,56.6,30.37,SW,217,0.0,0.0,80,0.00,,,0.00,Wunderground v.1.15,2013-08-25 13:20:00,
2013-08-25 09:30:00,64.7,57.3,30.37,SW,217,0.0,0.0,77,0.00,,,0.00,Wunderground v.1.15,2013-08-25 13:30:00,
2013-08-25 09:40:00,65.8,57.7,30.37,SE,145,0.0,0.0,75,0.00,,,0.00,Wunderground v.1.15,2013-08-25 13:40:00,
2013-08-25 09:50:00,67.1,56.2,30.37,SE,145,0.0,0.0,68,0.00,,,0.00,Wunderground v.1.15,2013-08-25 13:50:00,
2013-08-25 10:00:00,67.8,57.3,30.36,SSE,152,0.0,0.0,69,0.00,,,0.00,Wunderground v.1.15,2013-08-25 14:00:00,
2013-08-25 10:10:00,68.6,55.9,30.36,SSE,152,0.0,0.0,64,0.00,,,0.00,Wunderground v.1.15,2013-08-25 14:10:00,
2013-08-25 10:20:00,69.8,56.2,30.36,SSW,195,0.0,0.0,62,0.00,,,0.00,Wunderground v.1.15,2013-08-25 14:20:00,
2013-08-25 10:30:00,71.1,56.5,30.36,SSW,195,0.0,0.0,60,0.00,,,0.00,Wunderground v.1.15,2013-08-25 14:30:00,
2013-08-25 10:40:00,71.5,56.9,30.36,SSW,195,0.0,0.0,60,0.00,,,0.00,Wunderground v.1.15,2013-08-25 14:40:00,
2013-08-25 10:50:00,72.7,58.0,30.35,SSW,195,0.0,0.0,60,0.00,,,0.00,Wunderground v.1.15,2013-08-25 14:50:00,
2013-08-25 11:00:00,73.3,57.6,30.34,SE,137,0.0,0.0,58,0.00,,,0.00,Wunderground v.1.15,2013-08-25 15:00:00,
2013-08-25 11:10:00,73.7,57.0,30.34,SSE,150,0.0,0.0,56,0.00,,,0.00,Wunderground v.1.15,2013-08-25 15:10:00,
2013-08-25 11:20:00,74.6,58.4,30.33,West,280,0.0,2.0,57,0.00,,,0.00,Wunderground v.1.15,2013-08-25 15:20:00,
2013-08-25 11:30:00,75.4,57.1,30.33,South,175,0.0,0.0,53,0.00,,,0.00,Wunderground v.1.15,2013-08-25 15:30:00,
2013-08-25 11:40:00,76.3,56.8,30.33,SSE,150,0.0,0.0,51,0.00,,,0.00,Wunderground v.1.15,2013-08-25 15:40:00,
2013-08-25 11:50:00,76.1,55.0,30.32,SE,126,0.0,0.0,48,0.00,,,0.00,Wunderground v.1.15,2013-08-25 15:50:00,
2013-08-25 12:00:00,76.5,55.9,30.32,ESE,103,0.0,0.0,49,0.00,,,0.00,Wunderground v.1.15,2013-08-25 16:00:00,
2013-08-25 12:10:00,76.0,56.6,30.32,SE,126,1.0,1.0,51,0.00,,,0.00,Wunderground v.1.15,2013-08-25 16:10:00,
2013-08-25 12:20:00,76.0,54.9,30.31,SE,141,2.0,2.0,48,0.00,,,0.00,Wunderground v.1.15,2013-08-25 16:20:00,
2013-08-25 12:30:00,76.7,57.7,30.30,SSE,149,1.0,1.0,52,0.00,,,0.00,Wunderground v.1.15,2013-08-25 16:30:00,
2013-08-25 12:40:00,77.0,54.6,30.30,SSE,161,1.0,1.0,46,0.00,,,0.00,Wunderground v.1.15,2013-08-25 16:40:00,
2013-08-25 12:50:00,77.6,55.8,30.30,SE,136,0.0,0.0,47,0.00,,,0.00,Wunderground v.1.15,2013-08-25 16:50:00,
2013-08-25 13:00:00,77.7,55.9,30.30,SSE,168,1.0,4.0,47,0.00,,,0.00,Wunderground v.1.15,2013-08-25 17:00:00,
2013-08-25 13:10:00,78.5,57.7,30.30,SSE,166,1.0,6.0,49,0.00,,,0.00,Wunderground v.1.15,2013-08-25 17:10:00,
2013-08-25 13:20:00,77.9,54.8,30.30,SE,141,2.0,2.0,45,0.00,,,0.00,Wunderground v.1.15,2013-08-25 17:20:00,
2013-08-25 13:30:00,77.7,55.9,30.29,SE,126,2.0,2.0,47,0.00,,,0.00,Wunderground v.1.15,2013-08-25 17:30:00,
2013-08-25 13:40:00,78.8,55.7,30.29,SSE,153,0.0,3.0,45,0.00,,,0.00,Wunderground v.1.15,2013-08-25 17:40:00,
2013-08-25 13:50:00,79.6,55.1,30.29,ENE,58,0.0,4.0,43,0.00,,,0.00,Wunderground v.1.15,2013-08-25 17:50:00,
2013-08-25 14:00:00,79.2,54.8,30.29,SSW,196,0.0,3.0,43,0.00,,,0.00,Wunderground v.1.15,2013-08-25 18:00:00,
2013-08-25 14:10:00,79.8,54.0,30.29,South,173,0.0,3.0,41,0.00,,,0.00,Wunderground v.1.15,2013-08-25 18:10:00,
2013-08-25 14:20:00,79.2,54.1,30.28,NW,304,0.0,3.0,42,0.00,,,0.00,Wunderground v.1.15,2013-08-25 18:20:00,
2013-08-25 14:30:00,79.4,53.0,30.27,WNW,290,0.0,3.0,40,0.00,,,0.00,Wunderground v.1.15,2013-08-25 18:30:00,
2013-08-25 14:40:00,79.2,52.1,30.27,NE,35,1.0,1.0,39,0.00,,,0.00,Wunderground v.1.15,2013-08-25 18:40:00,
2013-08-25 14:50:00,77.4,55.6,30.27,ESE,121,0.0,3.0,47,0.00,,,0.00,Wunderground v.1.15,2013-08-25 18:50:00,
2013-08-25 15:00:00,78.5,55.4,30.26,ESE,112,1.0,3.0,45,0.00,,,0.00,Wunderground v.1.15,2013-08-25 19:00:00,
2013-08-25 15:10:00,78.5,54.8,30.26,ESE,114,1.0,1.0,44,0.00,,,0.00,Wunderground v.1.15,2013-08-25 19:10:00,
2013-08-25 15:20:00,78.1,55.6,30.26,West,260,0.0,3.0,46,0.00,,,0.00,Wunderground v.1.15,2013-08-25 19:20:00,
2013-08-25 15:30:00,77.0,56.4,30.25,ESE,107,0.0,3.0,49,0.00,,,0.00,Wunderground v.1.15,2013-08-25 19:30:00,
2013-08-25 15:40:00,76.8,58.4,30.25,SE,145,0.0,6.0,53,0.00,,,0.00,Wunderground v.1.15,2013-08-25 19:40:00,
2013-08-25 15:50:00,75.8,56.9,30.25,SSE,166,1.0,1.0,52,0.00,,,0.00,Wunderground v.1.15,2013-08-25 19:50:00,
2013-08-25 16:00:00,75.4,57.6,30.25,ESE,121,1.0,4.0,54,0.00,,,0.00,Wunderground v.1.15,2013-08-25 20:00:00,
2013-08-25 16:10:00,76.1,58.2,30.25,SE,126,1.0,1.0,54,0.00,,,0.00,Wunderground v.1.15,2013-08-25 20:10:00,
2013-08-25 16:20:00,76.8,57.3,30.24,ESE,116,1.0,1.0,51,0.00,,,0.00,Wunderground v.1.15,2013-08-25 20:20:00,
2013-08-25 16:30:00,77.4,58.4,30.22,SSE,150,1.0,4.0,52,0.00,,,0.00,Wunderground v.1.15,2013-08-25 20:30:00,
2013-08-25 16:40:00,77.4,57.9,30.22,SSE,161,1.0,3.0,51,0.00,,,0.00,Wunderground v.1.15,2013-08-25 20:40:00,
2013-08-25 16:50:00,76.8,55.6,30.22,East,101,2.0,2.0,48,0.00,,,0.00,Wunderground v.1.15,2013-08-25 20:50:00,
2013-08-25 17:00:00,76.5,55.9,30.21,ESE,121,2.0,2.0,49,0.00,,,0.00,Wunderground v.1.15,2013-08-25 21:00:00,
2013-08-25 17:10:00,76.5,55.9,30.21,ESE,121,2.0,2.0,49,0.00,,,0.00,Wunderground v.1.15,2013-08-25 21:10:00,
2013-08-25 17:20:00,76.3,57.4,30.20,ESE,108,1.0,1.0,52,0.00,,,0.00,Wunderground v.1.15,2013-08-25 21:20:00,
2013-08-25 17:30:00,76.0,57.1,30.20,SE,144,1.0,1.0,52,0.00,,,0.00,Wunderground v.1.15,2013-08-25 21:30:00,
2013-08-25 17:40:00,75.3,58.0,30.20,ESE,121,0.0,3.0,55,0.00,,,0.00,Wunderground v.1.15,2013-08-25 21:40:00,
2013-08-25 17:50:00,74.6,57.9,30.19,SE,143,0.0,3.0,56,0.00,,,0.00,Wunderground v.1.15,2013-08-25 21:50:00,
2013-08-25 18:00:00,74.2,58.5,30.19,SE,135,1.0,1.0,58,0.00,,,0.00,Wunderground v.1.15,2013-08-25 22:00:00,
2013-08-25 18:10:00,73.9,58.7,30.19,SE,131,0.0,0.0,59,0.00,,,0.00,Wunderground v.1.15,2013-08-25 22:10:00,
2013-08-25 18:20:00,73.2,58.5,30.19,East,99,0.0,0.0,60,0.00,,,0.00,Wunderground v.1.15,2013-08-25 22:20:00,
2013-08-25 18:30:00,72.7,58.9,30.18,ESE,116,0.0,0.0,62,0.00,,,0.00,Wunderground v.1.15,2013-08-25 22:30:00,
2013-08-25 18:40:00,72.1,57.4,30.18,ESE,116,0.0,0.0,60,0.00,,,0.00,Wunderground v.1.15,2013-08-25 22:40:00,
2013-08-25 18:50:00,71.6,58.8,30.18,SE,140,0.0,0.0,64,0.00,,,0.00,Wunderground v.1.15,2013-08-25 22:50:00,
2013-08-25 19:00:00,71.1,57.9,30.18,SE,131,0.0,0.0,63,0.00,,,0.00,Wunderground v.1.15,2013-08-25 23:00:00,
2013-08-25 19:10:00,70.8,58.9,30.18,ESE,112,0.0,5.0,66,0.00,,,0.00,Wunderground v.1.15,2013-08-25 23:10:00,
2013-08-25 19:20:00,70.4,58.5,30.17,ESE,114,0.0,5.0,66,0.00,,,0.00,Wunderground v.1.15,2013-08-25 23:20:00,
2013-08-25 19:30:00,70.3,58.4,30.17,East,97,0.0,5.0,66,0.00,,,0.00,Wunderground v.1.15,2013-08-25 23:30:00,
2013-08-25 19:40:00,69.9,58.4,30.17,ESE,112,0.0,5.0,67,0.00,,,0.00,Wunderground v.1.15,2013-08-25 23:40:00,
2013-08-25 19:50:00,69.4,58.4,30.17,ESE,121,0.0,5.0,68,0.00,,,0.00,Wunderground v.1.15,2013-08-25 23:50:00,
2013-08-25 20:00:00,69.3,58.3,30.16,ESE,121,1.0,5.0,68,0.00,,,0.00,Wunderground v.1.15,2013-08-26 00:00:00,
2013-08-25 20:10:00,68.8,57.8,30.16,ESE,121,1.0,1.0,68,0.00,,,0.00,Wunderground v.1.15,2013-08-26 00:10:00,
2013-08-25 20:20:00,68.9,57.9,30.15,ESE,108,1.0,1.0,68,0.00,,,0.00,Wunderground v.1.15,2013-08-26 00:20:00,
2013-08-25 20:30:00,69.4,57.5,30.14,ESE,106,2.0,2.0,66,0.00,,,0.00,Wunderground v.1.15,2013-08-26 00:30:00,
2013-08-25 20:40:00,69.6,57.7,30.14,ESE,115,2.0,5.0,66,0.00,,,0.00,Wunderground v.1.15,2013-08-26 00:40:00,
2013-08-25 20:50:00,69.6,58.2,30.16,SE,131,1.0,1.0,67,0.00,,,0.00,Wunderground v.1.15,2013-08-26 00:50:00,
2013-08-25 21:00:00,69.4,58.0,30.16,ESE,114,0.0,5.0,67,0.00,,,0.00,Wunderground v.1.15,2013-08-26 01:00:00,
2013-08-25 21:10:00,69.1,58.1,30.16,ESE,121,0.0,5.0,68,0.00,,,0.00,Wunderground v.1.15,2013-08-26 01:10:00,
2013-08-25 21:20:00,68.9,58.3,30.16,SE,143,0.0,5.0,69,0.00,,,0.00,Wunderground v.1.15,2013-08-26 01:20:00,
2013-08-25 21:30:00,68.8,58.6,30.17,ESE,104,0.0,5.0,70,0.00,,,0.00,Wunderground v.1.15,2013-08-26 01:30:00,
2013-08-25 21:40:00,68.6,58.4,30.17,SE,126,0.0,5.0,70,0.00,,,0.00,Wunderground v.1.15,2013-08-26 01:40:00,
2013-08-25 21:50:00,68.8,58.6,30.16,SE,135,2.0,5.0,70,0.00,,,0.00,Wunderground v.1.15,2013-08-26 01:50:00,
2013-08-25 22:00:00,68.9,58.3,30.16,ESE,102,1.0,1.0,69,0.00,,,0.00,Wunderground v.1.15,2013-08-26 02:00:00,
2013-08-25 22:10:00,68.9,57.9,30.16,ESE,121,1.0,1.0,68,0.00,,,0.00,Wunderground v.1.15,2013-08-26 02:10:00,
2013-08-25 22:20:00,68.9,58.3,30.16,ESE,121,0.0,5.0,69,0.00,,,0.00,Wunderground v.1.15,2013-08-26 02:20:00,
2013-08-25 22:30:00,68.6,57.6,30.16,SE,138,1.0,1.0,68,0.00,,,0.00,Wunderground v.1.15,2013-08-26 02:30:00,
2013-08-25 22:40:00,68.8,57.8,30.16,ESE,121,1.0,1.0,68,0.00,,,0.00,Wunderground v.1.15,2013-08-26 02:40:00,
2013-08-25 22:50:00,68.8,58.2,30.16,SE,137,0.0,5.0,69,0.00,,,0.00,Wunderground v.1.15,2013-08-26 02:50:00,
2013-08-25 23:00:00,68.1,58.7,30.16,SE,137,0.0,5.0,72,0.00,,,0.00,Wunderground v.1.15,2013-08-26 03:00:00,
2013-08-25 23:10:00,67.3,58.7,30.16,SE,137,0.0,5.0,74,0.00,,,0.00,Wunderground v.1.15,2013-08-26 03:10:00,
2013-08-25 23:20:00,66.1,59.4,30.16,SE,137,0.0,5.0,79,0.00,,,0.00,Wunderground v.1.15,2013-08-26 03:20:00,
2013-08-25 23:30:00,65.2,59.9,30.16,SE,137,0.0,5.0,83,0.00,,,0.00,Wunderground v.1.15,2013-08-26 03:30:00,
2013-08-25 23:40:00,64.5,59.9,30.16,SE,137,0.0,5.0,85,0.00,,,0.00,Wunderground v.1.15,2013-08-26 03:40:00,
2013-08-25 23:50:00,64.3,60.0,30.15,SE,137,0.0,5.0,86,0.00,,,0.00,Wunderground v.1.15,2013-08-26 03:50:00,